Omaha, IA

1:43 AM CST on February 23, 2018 (GMT -0600)
Eppley Airfield

Weather History for KOMA - May, 2014

Change the Weather History Date:

Saturday, May 24, 2014

  Actual Average Record
Temperature  
Mean Temperature 72 °F 65 °F  
Max Temperature 80 °F 76 °F 99 °F (1939)
Min Temperature 63 °F 54 °F 36 °F (1924)
Degree Days  
Heating Degree Days 0 3  
Month to date heating degree days 143 131  
Since 1 July heating degree days 6530 6133  
Cooling Degree Days 7 3  
Month to date cooling degree days 52 41  
Year to date cooling degree days 67 57  
Growing Degree Days 22 (Base 50)    
Moisture  
Dew Point 53 °F    
Average Humidity 57    
Maximum Humidity 76    
Minimum Humidity 38    
Precipitation  
Precipitation T in 0.15 in 2.28 in (2004)
Month to date precipitation 2.70 3.64  
Year to date precipitation 6.39 10.16  
Snow  
Snow 0.00 in 0.00 in - ()
Month to date snowfall 0.0 0.1  
Since 1 July snowfall 17.8 26.5  
Snow Depth 0.00 in    
Sea Level Pressure  
Sea Level Pressure 30.05 in    
Wind  
Wind Speed 11 mph (SE)    
Max Wind Speed 23 mph    
Max Gust Speed 26 mph    
Visibility 10 miles    
Events Rain    
T = Trace of Precipitation, MM = Missing Value Source: NWS Daily Summary

Daily Weather History Graph

Daily Weather History Graph

Search for Another Location

Airport or City:

Trip Planner

Search our weather history database for the weather conditions in past years. The results will help you decide how hot, cold, wet, or windy it might be!

Date:

Astronomy

May. 24, 2014 Rise Set
Actual Time 5:57 AM CDT 8:43 PM CDT
Civil Twilight 5:25 AM CDT 9:16 PM CDT
Nautical Twilight 4:44 AM CDT 9:57 PM CDT
Astronomical Twilight 3:57 AM CDT 10:44 PM CDT
Moon 3:29 AM CDT (5/24) 4:39 PM CDT (5/24)
Length of Visible Light 15h 51m
Length of Day
14h 46m
Waning Crescent, 18% of the Moon is Illuminated
May 24
Waning Crescent
May 28
New
Jun 5
First Quarter
Jun 12
Full
Jun 19
Last Quarter

Hourly Weather History & Observations

Time (CDT) Temp. Heat Index Dew Point Humidity Pressure Visibility Wind Dir Wind Speed Gust Speed Precip Events Conditions
12:52 AM 66.9 °F - 51.1 °F 57% 30.09 in 10.0 mi SE 6.9 mph - N/A   Overcast
1:52 AM 66.0 °F - 51.1 °F 59% 30.08 in 10.0 mi SE 3.5 mph - N/A   Overcast
2:52 AM 64.9 °F - 52.0 °F 63% 30.07 in 10.0 mi East 4.6 mph - N/A   Overcast
3:52 AM 64.9 °F - 50.0 °F 58% 30.08 in 10.0 mi SE 5.8 mph - N/A   Overcast
4:52 AM 64.0 °F - 51.1 °F 63% 30.09 in 10.0 mi ESE 3.5 mph - N/A   Overcast
5:52 AM 63.0 °F - 50.0 °F 63% 30.08 in 10.0 mi SE 8.1 mph - N/A   Overcast
6:52 AM 64.0 °F - 50.0 °F 60% 30.09 in 10.0 mi SE 5.8 mph - N/A   Overcast
7:52 AM 64.9 °F - 50.0 °F 58% 30.10 in 10.0 mi ESE 4.6 mph - N/A   Overcast
8:52 AM 66.0 °F - 50.0 °F 56% 30.10 in 10.0 mi ESE 8.1 mph - N/A   Overcast
9:52 AM 69.1 °F - 50.0 °F 51% 30.09 in 10.0 mi SE 9.2 mph - N/A   Overcast
10:52 AM 71.1 °F - 48.9 °F 45% 30.09 in 10.0 mi South 12.7 mph - N/A   Overcast
11:52 AM 71.1 °F - 50.0 °F 47% 30.08 in 10.0 mi SE 10.4 mph - N/A   Overcast
12:52 PM 73.0 °F - 51.1 °F 46% 30.06 in 10.0 mi SE 8.1 mph - 0.00 in   Overcast
1:52 PM 75.0 °F - 48.9 °F 40% 30.04 in 10.0 mi ESE 12.7 mph - 0.00 in   Mostly Cloudy
2:52 PM 77.0 °F - 52.0 °F 42% 30.03 in 10.0 mi SE 12.7 mph - N/A   Overcast
3:52 PM 78.1 °F - 55.0 °F 45% 30.01 in 10.0 mi East 15.0 mph - N/A   Mostly Cloudy
4:52 PM 80.1 °F 80.1 °F 55.0 °F 42% 29.99 in 10.0 mi SE 13.8 mph 25.3 mph N/A   Mostly Cloudy
5:52 PM 78.8 °F - 57.2 °F 47% 30.00 in 10.0 mi SE 18.4 mph 25.3 mph N/A   Mostly Cloudy
6:52 PM 75.0 °F - 57.9 °F 55% 29.97 in 10.0 mi SSE 17.3 mph - N/A   Mostly Cloudy
7:52 PM 72.0 °F - 60.1 °F 66% 29.99 in 10.0 mi South 18.4 mph - N/A   Overcast
8:52 PM 70.0 °F - 57.9 °F 65% 29.99 in 10.0 mi SSE 15.0 mph - N/A   Mostly Cloudy
9:52 PM 69.1 °F - 60.1 °F 73% 30.00 in 10.0 mi SE 16.1 mph - N/A   Overcast
10:52 PM 68.0 °F - 61.0 °F 78% 30.01 in 10.0 mi SE 11.5 mph - N/A   Overcast
11:52 PM 68.0 °F - 62.1 °F 81% 30.00 in 10.0 mi SE 11.5 mph - 0.00 in Rain Light Rain